AirNav   Phillips 66 Aviation Fuel
 
 899 users online  

2M7 Hoffman's Black Mountain Aerodrome
Cheboygan, Michigan, USA

GOING TO CHEBOYGAN?


FAA INFORMATION EFFECTIVE 11 OCTOBER 2018

Location

FAA Identifier: 2M7
Lat/Long: 45-31-55.0000N / 084-18-29.0000W
45-31.916667N / 084-18.483333W
45.5319444 / -84.3080556
(estimated)
Elevation: 677 ft. / 206 m (estimated)
Variation: 06W (1995)
From city: 11 miles SE of CHEBOYGAN, MI
Time zone: UTC -4 (UTC -5 during Standard Time)
Zip code: 49721

Airport Operations

Airport use: Open to the public
Activation date: 09/1998
Control tower: no
ARTCC: MINNEAPOLIS CENTER
FSS: LANSING FLIGHT SERVICE STATION
NOTAMs facility: LAN (NOTAM-D service available)
Attendance: IREG
Wind indicator: yes
Segmented circle: no

Airport Communications

CTAF/UNICOM: 122.8
WX AWOS-3 at SLH (11 nm NW): 118.175 (231-627-4671)

Nearby radio navigation aids

VOR radial/distance  VOR name  Freq  Var
PLNr118/16.1PELLSTON VORTAC111.8006W
GLRr034/35.4GAYLORD VOR/DME109.2006W

Airport Services

Parking: hangars
Airframe service: MAJOR
Powerplant service: MAJOR

Runway Information

Runway 15/33

Dimensions: 2800 x 90 ft. / 853 x 27 m
Surface: turf, in fair condition
RY 15/33 SOFT WHEN WET. CALL 231-627-2418 TO CFM RY CONDS. RY ROUGH, UNEVEN, TIRE RUTS.
Runway edge markings: RY 15/33 MKD WITH 3 FT YELLOW CONES.
RUNWAY 15  RUNWAY 33
Traffic pattern: leftleft
Displaced threshold: 1200 ft.900 ft.
Obstructions: 75 ft. trees, 120 ft. right of centerline
RWY 15 APCH RATIO 20:1 FM DSPLCD THLD.
40 ft. trees, 105 ft. right of centerline
APCH RATIO 20:1 FM DSPLCD THLD OVER +55 FT TREES; 1100 FT FM DSPLCD THLD.

Airport Ownership and Management from official FAA records

Ownership: Privately-owned
Owner: ALLEN AND BETSY HOFFMAN
9341 TWIN LAKES ROAD
CHEBOYGAN, MI 49721
Phone 231-627-2418
Manager: ALLEN D. HOFFMAN
9341 TWIN LAKES ROAD
CHEBOYGAN, MI 49721
Phone 231-627-2418

Airport Operational Statistics

Aircraft based on the field: 2
Single engine airplanes: 2
    
Aircraft operations: avg 25/month *
50% transient general aviation
50% local general aviation
* for 12-month period ending 31 December 2015

Additional Remarks

RY 15/33 DITCH ON BOTH SIDES OF RY.

Instrument Procedures

There are no published instrument procedures at 2M7.

Some nearby airports with instrument procedures:

KSLH - Cheboygan County Airport (11 nm NW)
6Y1 - Bois Blanc Island Airport (16 nm NW)
KPLN - Pellston Regional Airport of Emmet County (21 nm W)
KPZQ - Presque Isle County Airport (22 nm E)
KMCD - Mackinac Island Airport (24 nm NW)
 
Loc | Ops | Rwys | IFR | FBO | Links
Com | Nav | Svcs | Stats | Notes


 
Area around 2M7 (Hoffman's Black Mountain Aerodrome)
 
Road maps at: MapQuest Bing Google
 
Aerial photo
No photo
 
Sectional chart

 
Airport distance calculator
Flying to Hoffman's Black Mountain Aerodrome? Find the distance to fly.

From to 2M7

Sunrise and sunset
Times for 19-Oct-2018
 Local
(UTC-4)
 Zulu
(UTC)
Morning civil twilight07:3011:30
Sunrise08:0012:00
Sunset18:4522:45
Evening civil twilight19:1523:15

Current date and time
Zulu (UTC)  20-Oct-2018 00:55:11
Local (UTC-4)  19-Oct-2018 20:55:11
 
METAR
KSLH 
11nm NW 
200035Z AUTO 25011G19KT 4SM DZ BKN011 OVC016 10/10 A2949 RMK AO2 T00970096
KPLN 
21nm W 
200040Z AUTO 25019G29KT 10SM BKN011 BKN017 OVC022 11/09 A2951 RMK AO2 PK WND 24031/0008 RAE37 P0003 T01110094
KPZQ 
22nm E 
200035Z AUTO 24011G18KT 7SM -RA BKN013 OVC020 09/08 A2952 RMK AO2 T00930081
TAF
KPLN 
21nm W 
192013Z 1920/2018 23016G29KT P6SM -SHRA OVC025 FM200000 26015G26KT 4SM -SHRA OVC018 FM200200 29013G25KT P6SM VCSH BKN045 FM201500 32014G26KT P6SM VCSH BKN025
NOTAMs
Click for the latest NOTAMs
NOTAMs are issued by the DoD/FAA and will open in a separate window not controlled by AirNav.

 

 
 

Would you like to see your business listed on this page?

 If your business provides an interesting product or service to pilots, flight crews, aircraft, or users of the Hoffman's Black Mountain Aerodrome, you should consider listing it here.  To start the listing process, click on the button below
 
Add a business
 

Other Pages about Hoffman's Black Mountain Aerodrome

Page from the Michigan Airport Directory (PDF)
 
Update a link
 
Copyright © AirNav, LLC. All rights reserved. Privacy Policy  Contact